Terminal Aerodrome Forecast
Issued by NWS

Current Version | Previous Version | Text Only | Print | Product List | Glossary On
Versions: 1 2 3 4 5 6 7 8 9 10 11 12 13 14 15 16 17 18 19 20 21 22 23 24 25 26 27 28 29 30 31 32 33 34 35 36 37 38 39 40 41 42 43 44 45 46 47 48 49 50
000
FTAK31 PANC 252336
TAFATK
TAF
PATK 252336Z 2600/2624 18005KT 1SM -SN BR OVC015
     FM260600 18008KT 3SM -SHSN SCT015 OVC025
     FM261500 VRB03KT P6SM -SHSN SCT025 BKN035
     FM262000 20005KT 3SM -SHSN BKN025=

USA.gov is the U.S. government's official web portal to all federal, state and local government web resources and services.